Location: Mascot Post Office (historical)
(40.2645°N, 99.5462°W)
Time: 02:24:05
(UTC+00:00)

Cosmos 2219 Rocket - Pass Details

Date: 14 July 2020
Orbit: 827 x 848 km, 71.0° (Epoch: 14 August)

Event Time Altitude Azimuth Distance (km) Brightness Sun altitude
Rises 02:46:25 0° 210° (SSW) 3,352 5.2 -7.0°
Reaches altitude 10° 02:48:51 10° 213° (SSW) 2,424 4.6 -7.4°
Maximum altitude 02:54:22 66° 295° (WNW) 903 2.7 -8.3°
Drops below altitude 10° 02:59:57 10° 18° (NNE) 2,450 4.9 -9.1°
Sets 03:02:26 0° 21° (NNE) 3,391 5.6 -9.5°
